Radiation Dose at Monitoring Post of Fukushima Daini Nuclear Power Station
Date,Time,MP-1(microSv/h),MP-2(microSv/h),MP-3(microSv/h),MP-4(microSv/h),MP-5(microSv/h),MP-6(microSv/h),MP-7(microSv/h),Wind Direction,Wind Velocity(m/s),Rain
2021/01/12,00:00,0.178,0.161,0.260,0.247,0.239,0.143,0.087,northwest,1.7,No
2021/01/12,00:10,0.178,0.162,0.261,0.246,0.240,0.142,0.086,north-northwest,1.7,No
2021/01/12,00:20,0.179,0.161,0.261,0.248,0.241,0.143,0.086,north-northwest,2.5,No
2021/01/12,00:30,0.179,0.161,0.262,0.248,0.241,0.142,0.086,north-northwest,2.6,No
2021/01/12,00:40,0.179,0.160,0.262,0.247,0.242,0.143,0.086,northwest,2.4,No
2021/01/12,00:50,0.179,0.160,0.260,0.248,0.242,0.142,0.086,northwest,4.2,No
2021/01/12,01:00,0.179,0.160,0.260,0.246,0.240,0.142,0.087,north-northwest,4.1,No
2021/01/12,01:10,0.179,0.160,0.261,0.246,0.241,0.142,0.087,north-northwest,3.8,No
2021/01/12,01:20,0.179,0.161,0.261,0.247,0.242,0.142,0.086,northwest,3.6,No
2021/01/12,01:30,0.179,0.161,0.261,0.247,0.241,0.142,0.087,west-northwest,2.9,No
2021/01/12,01:40,0.179,0.160,0.262,0.246,0.241,0.143,0.087,west-northwest,3.2,No
2021/01/12,01:50,0.179,0.161,0.261,0.246,0.241,0.143,0.087,west-northwest,3.7,No
2021/01/12,02:00,0.178,0.160,0.261,0.246,0.241,0.143,0.086,northwest,3.4,No
2021/01/12,02:10,0.179,0.161,0.261,0.246,0.241,0.143,0.086,northwest,2.7,No
2021/01/12,02:20,0.179,0.160,0.261,0.247,0.241,0.142,0.086,northwest,3.0,No
2021/01/12,02:30,0.179,0.161,0.260,0.247,0.239,0.143,0.086,west-northwest,3.5,No
2021/01/12,02:40,0.179,0.160,0.260,0.247,0.241,0.142,0.086,west-northwest,2.2,No
2021/01/12,02:50,0.180,0.160,0.260,0.247,0.240,0.142,0.087,west,1.4,No
2021/01/12,03:00,0.179,0.161,0.261,0.247,0.241,0.142,0.086,northwest,2.5,Yes
2021/01/12,03:10,0.179,0.160,0.261,0.247,0.241,0.143,0.087,northwest,4.5,Yes
2021/01/12,03:20,0.180,0.161,0.262,0.248,0.242,0.144,0.087,northwest,4.7,Yes
2021/01/12,03:30,0.180,0.162,0.263,0.249,0.243,0.145,0.088,northwest,3.4,Yes
2021/01/12,03:40,0.181,0.163,0.263,0.249,0.243,0.145,0.089,north-northwest,3.9,Yes
2021/01/12,03:50,0.181,0.163,0.264,0.250,0.243,0.146,0.090,northwest,3.7,Yes
2021/01/12,04:00,0.182,0.164,0.264,0.251,0.243,0.146,0.089,north-northwest,3.8,Yes
2021/01/12,04:10,0.182,0.162,0.263,0.251,0.244,0.146,0.090,northwest,4.1,Yes
2021/01/12,04:20,0.181,0.164,0.262,0.248,0.244,0.146,0.090,north-northwest,3.7,Yes
2021/01/12,04:30,0.182,0.164,0.264,0.249,0.244,0.147,0.090,northwest,3.8,Yes
2021/01/12,04:40,0.182,0.164,0.264,0.250,0.243,0.146,0.091,northwest,3.5,Yes
2021/01/12,04:50,0.183,0.164,0.263,0.251,0.244,0.147,0.091,northwest,4.0,Yes
2021/01/12,05:00,0.183,0.164,0.263,0.251,0.245,0.147,0.091,north-northwest,3.6,Yes
2021/01/12,05:10,0.183,0.165,0.264,0.251,0.246,0.148,0.092,northwest,3.8,Yes
2021/01/12,05:20,0.185,0.165,0.264,0.250,0.244,0.149,0.093,northwest,4.0,Yes
2021/01/12,05:30,0.184,0.166,0.264,0.250,0.243,0.148,0.093,northwest,4.4,Yes
2021/01/12,05:40,0.184,0.165,0.263,0.249,0.242,0.148,0.093,north-northwest,5.0,Yes
2021/01/12,05:50,0.184,0.166,0.263,0.249,0.243,0.149,0.094,north-northwest,5.9,Yes
2021/01/12,06:00,0.184,0.165,0.261,0.248,0.244,0.148,0.093,north-northwest,5.9,Yes
2021/01/12,06:10,0.183,0.166,0.261,0.248,0.243,0.149,0.093,north-northwest,6.2,Yes
2021/01/12,06:20,0.183,0.166,0.261,0.248,0.243,0.148,0.093,north-northwest,6.1,Yes
2021/01/12,06:30,0.184,0.165,0.260,0.248,0.243,0.148,0.094,northwest,6.5,Yes
2021/01/12,06:40,0.183,0.165,0.259,0.246,0.242,0.148,0.093,north-northwest,5.9,Yes
2021/01/12,06:50,0.182,0.165,0.261,0.246,0.242,0.148,0.093,north-northwest,5.9,Yes
2021/01/12,07:00,0.183,0.164,0.259,0.245,0.241,0.147,0.093,north-northwest,6.2,Yes
2021/01/12,07:10,0.182,0.164,0.259,0.244,0.241,0.148,0.093,north-northwest,6.6,Yes
2021/01/12,07:20,0.183,0.164,0.258,0.244,0.241,0.148,0.094,north-northwest,6.8,Yes
2021/01/12,07:30,0.182,0.165,0.258,0.244,0.241,0.148,0.094,north-northwest,6.7,Yes
2021/01/12,07:40,0.182,0.165,0.258,0.244,0.240,0.148,0.093,north-northwest,6.8,Yes
2021/01/12,07:50,0.182,0.163,0.257,0.242,0.240,0.148,0.093,north-northwest,7.0,Yes
2021/01/12,08:00,0.182,0.163,0.254,0.242,0.239,0.147,0.094,north-northwest,6.8,Yes
2021/01/12,08:10,0.181,0.163,0.253,0.241,0.238,0.146,0.093,north-northwest,6.4,Yes
2021/01/12,08:20,0.181,0.162,0.252,0.241,0.239,0.147,0.093,north-northwest,8.1,Yes
2021/01/12,08:30,0.180,0.162,0.251,0.239,0.236,0.146,0.091,north-northwest,8.4,Yes
2021/01/12,08:40,0.179,0.162,0.251,0.238,0.236,0.145,0.091,north-northwest,8.2,Yes
2021/01/12,08:50,0.178,0.160,0.250,0.237,0.235,0.143,0.089,north-northwest,8.5,Yes
2021/01/12,09:00,0.178,0.158,0.249,0.236,0.234,0.143,0.089,northwest,8.2,No
2021/01/12,09:10,0.177,0.158,0.249,0.234,0.233,0.141,0.088,north-northwest,7.6,No
2021/01/12,09:20,0.176,0.158,0.248,0.235,0.233,0.141,0.087,northwest,7.7,No
2021/01/12,09:30,0.175,0.156,0.247,0.233,0.231,0.140,0.086,northwest,8.7,Yes
2021/01/12,09:40,0.174,0.156,0.246,0.232,0.231,0.138,0.085,northwest,6.8,No
2021/01/12,09:50,0.175,0.156,0.246,0.232,0.230,0.137,0.085,northwest,7.0,No
2021/01/12,10:00,0.173,0.154,0.245,0.231,0.230,0.138,0.085,northwest,7.1,No
2021/01/12,10:10,0.173,0.156,0.244,0.232,0.229,0.136,0.084,north-northwest,8.7,Yes
2021/01/12,10:20,0.172,0.154,0.244,0.232,0.230,0.137,0.084,northwest,8.6,Yes
2021/01/12,10:30,0.172,0.155,0.244,0.231,0.229,0.136,0.083,northwest,7.7,Yes
2021/01/12,10:40,0.173,0.154,0.244,0.231,0.229,0.136,0.084,northwest,7.4,Yes
2021/01/12,10:50,0.173,0.155,0.244,0.230,0.229,0.136,0.084,northwest,7.3,Yes
2021/01/12,11:00,0.173,0.154,0.245,0.230,0.228,0.136,0.083,north-northwest,7.5,Yes
2021/01/12,11:10,0.172,0.154,0.243,0.231,0.228,0.136,0.083,north-northwest,6.5,No
2021/01/12,11:20,0.173,0.154,0.243,0.231,0.229,0.136,0.083,north-northwest,7.0,No
2021/01/12,11:30,0.173,0.153,0.243,0.231,0.230,0.135,0.083,north-northwest,6.2,No
2021/01/12,11:40,0.173,0.154,0.245,0.231,0.229,0.135,0.084,northwest,5.9,No
2021/01/12,11:50,0.173,0.154,0.243,0.230,0.228,0.136,0.083,northwest,6.2,No
2021/01/12,12:00,0.173,0.154,0.243,0.230,0.229,0.135,0.083,northwest,6.0,No
2021/01/12,12:10,0.173,0.154,0.243,0.230,0.229,0.135,0.083,northwest,6.2,No
2021/01/12,12:20,0.172,0.154,0.244,0.231,0.228,0.136,0.083,northwest,5.5,No
2021/01/12,12:30,0.173,0.154,0.243,0.232,0.228,0.135,0.083,north-northwest,5.2,No
2021/01/12,12:40,0.173,0.154,0.245,0.231,0.229,0.136,0.083,north-northwest,4.7,No
2021/01/12,12:50,0.173,0.154,0.245,0.231,0.229,0.136,0.084,north-northwest,4.8,No
2021/01/12,13:00,0.173,0.155,0.245,0.232,0.228,0.136,0.084,northwest,4.2,Yes
2021/01/12,13:10,0.174,0.154,0.244,0.232,0.229,0.137,0.084,north-northwest,5.2,Yes
2021/01/12,13:20,0.174,0.155,0.246,0.232,0.230,0.136,0.084,north-northwest,4.7,Yes
2021/01/12,13:30,0.174,0.155,0.246,0.231,0.229,0.137,0.083,north-northwest,5.5,No
2021/01/12,13:40,0.175,0.155,0.246,0.232,0.230,0.137,0.085,north-northwest,5.4,No
2021/01/12,13:50,0.173,0.154,0.246,0.232,0.230,0.137,0.085,northwest,4.1,No
2021/01/12,14:00,0.173,0.155,0.247,0.233,0.229,0.137,0.084,northwest,3.4,No
2021/01/12,14:10,0.173,0.156,0.246,0.232,0.230,0.137,0.084,northwest,3.5,Yes
2021/01/12,14:20,0.174,0.155,0.246,0.232,0.229,0.137,0.084,northwest,3.8,Yes
2021/01/12,14:30,0.175,0.156,0.247,0.233,0.230,0.138,0.084,north,3.6,Yes
2021/01/12,14:40,0.175,0.158,0.248,0.233,0.230,0.139,0.086,northwest,4.3,Yes
2021/01/12,14:50,0.174,0.157,0.249,0.233,0.230,0.139,0.085,north,3.3,Yes
2021/01/12,15:00,0.175,0.158,0.249,0.234,0.231,0.140,0.087,northwest,2.8,Yes
2021/01/12,15:10,0.175,0.158,0.249,0.234,0.232,0.140,0.087,northwest,4.6,Yes
2021/01/12,15:20,0.176,0.159,0.248,0.234,0.232,0.140,0.086,northwest,4.6,Yes
2021/01/12,15:30,0.176,0.158,0.249,0.235,0.232,0.140,0.088,northwest,4.2,Yes
2021/01/12,15:40,0.176,0.158,0.249,0.235,0.232,0.141,0.088,northwest,4.8,Yes
2021/01/12,15:50,0.177,0.159,0.250,0.235,0.232,0.142,0.087,northwest,3.7,Yes
2021/01/12,16:00,0.176,0.160,0.249,0.236,0.232,0.141,0.088,northwest,4.0,Yes
2021/01/12,16:10,0.177,0.159,0.249,0.235,0.231,0.141,0.087,northwest,3.6,Yes
2021/01/12,16:20,0.176,0.159,0.249,0.235,0.232,0.142,0.088,northwest,3.2,Yes
2021/01/12,16:30,0.177,0.160,0.249,0.235,0.233,0.142,0.088,northwest,2.9,Yes
2021/01/12,16:40,0.177,0.160,0.249,0.235,0.232,0.142,0.088,northwest,3.3,Yes
2021/01/12,16:50,0.178,0.159,0.249,0.234,0.233,0.141,0.087,northwest,3.1,Yes
2021/01/12,17:00,0.177,0.159,0.250,0.237,0.233,0.142,0.087,west-northwest,2.2,Yes
2021/01/12,17:10,0.176,0.158,0.247,0.235,0.232,0.141,0.088,west-northwest,2.6,Yes
2021/01/12,17:20,0.177,0.159,0.249,0.236,0.233,0.140,0.089,west-northwest,2.7,Yes
2021/01/12,17:30,0.177,0.158,0.249,0.236,0.234,0.140,0.087,northwest,2.4,Yes
2021/01/12,17:40,0.177,0.159,0.247,0.236,0.233,0.140,0.087,northwest,2.7,Yes
2021/01/12,17:50,0.176,0.158,0.248,0.235,0.232,0.140,0.087,northwest,2.7,Yes
2021/01/12,18:00,0.176,0.158,0.248,0.235,0.232,0.139,0.087,northwest,3.2,No
2021/01/12,18:10,0.175,0.158,0.246,0.234,0.233,0.140,0.086,northwest,2.8,Yes
2021/01/12,18:20,0.175,0.157,0.248,0.234,0.231,0.138,0.085,west-northwest,1.9,Yes
2021/01/12,18:30,0.175,0.156,0.247,0.235,0.231,0.138,0.085,north-northwest,3.8,Yes
2021/01/12,18:40,0.175,0.156,0.246,0.233,0.231,0.139,0.085,northwest,4.2,Yes
2021/01/12,18:50,0.174,0.157,0.247,0.234,0.231,0.138,0.085,north-northwest,5.4,Yes
2021/01/12,19:00,0.174,0.156,0.246,0.234,0.231,0.138,0.085,north-northwest,6.2,No
2021/01/12,19:10,0.175,0.156,0.247,0.233,0.231,0.138,0.085,north-northwest,6.0,No
2021/01/12,19:20,0.174,0.156,0.246,0.234,0.232,0.138,0.085,north-northwest,5.5,No
2021/01/12,19:30,0.174,0.156,0.247,0.233,0.231,0.137,0.085,northwest,4.0,No
2021/01/12,19:40,0.174,0.156,0.247,0.233,0.231,0.138,0.085,northwest,3.7,No
2021/01/12,19:50,0.174,0.156,0.247,0.234,0.231,0.137,0.085,west-northwest,3.3,No
2021/01/12,20:00,0.174,0.156,0.247,0.233,0.231,0.137,0.085,west-northwest,2.6,No
2021/01/12,20:10,0.174,0.156,0.247,0.234,0.231,0.138,0.084,west-northwest,3.0,No
2021/01/12,20:20,0.174,0.156,0.246,0.234,0.231,0.137,0.085,northwest,3.9,No
2021/01/12,20:30,0.173,0.155,0.248,0.233,0.232,0.136,0.084,northwest,3.4,No
2021/01/12,20:40,0.173,0.155,0.248,0.234,0.231,0.138,0.084,northwest,3.4,No
2021/01/12,20:50,0.173,0.154,0.247,0.235,0.231,0.137,0.085,west-northwest,2.4,No
2021/01/12,21:00,0.173,0.156,0.246,0.233,0.231,0.138,0.084,west-northwest,2.1,No
2021/01/12,21:10,0.174,0.155,0.248,0.233,0.231,0.138,0.083,west-northwest,2.0,No
2021/01/12,21:20,0.174,0.156,0.248,0.233,0.231,0.137,0.084,northwest,2.4,No
2021/01/12,21:30,0.174,0.155,0.248,0.234,0.232,0.137,0.084,northwest,1.6,No
2021/01/12,21:40,0.173,0.155,0.246,0.235,0.231,0.138,0.085,west-northwest,0.9,No
2021/01/12,21:50,0.174,0.155,0.247,0.235,0.231,0.138,0.084,west-northwest,2.1,No
2021/01/12,22:00,0.174,0.156,0.248,0.234,0.232,0.138,0.085,northwest,1.9,No
2021/01/12,22:10,0.174,0.156,0.248,0.234,0.232,0.138,0.084,-,CALM,No
2021/01/12,22:20,0.174,0.155,0.247,0.235,0.232,0.138,0.084,-,CALM,No
2021/01/12,22:30,0.175,0.156,0.247,0.235,0.231,0.137,0.084,west,0.6,No
2021/01/12,22:40,0.175,0.155,0.247,0.235,0.231,0.138,0.084,west,1.8,No
2021/01/12,22:50,0.174,0.155,0.248,0.234,0.232,0.138,0.084,northwest,3.0,No
2021/01/12,23:00,0.174,0.156,0.247,0.235,0.230,0.138,0.084,west-northwest,2.1,No
2021/01/12,23:10,0.174,0.156,0.248,0.233,0.230,0.137,0.084,northwest,2.3,No
2021/01/12,23:20,0.173,0.155,0.247,0.234,0.232,0.138,0.085,northwest,1.8,No
2021/01/12,23:30,0.173,0.154,0.246,0.234,0.231,0.137,0.084,northwest,1.2,No
2021/01/12,23:40,0.173,0.155,0.247,0.234,0.231,0.136,0.084,west-northwest,1.3,No
2021/01/12,23:50,0.173,0.155,0.247,0.234,0.230,0.137,0.084,west-northwest,1.7,No
